Weather History for KICT - October, 2012

Change the Weather History Date:

Wednesday, October 17, 2012

  Actual Average Record
Temperature  
Mean Temperature 59 °F 58 °F  
Max Temperature 73 °F 69 °F 90 °F (1991)
Min Temperature 45 °F 47 °F 29 °F (1976)
Degree Days  
Heating Degree Days 6 8  
Month to date heating degree days 107 100  
Since 1 July heating degree days 123 143  
Cooling Degree Days 0 1  
Month to date cooling degree days 10 30  
Year to date cooling degree days 2265 1679  
Growing Degree Days 10 (Base 50)    
Moisture  
Dew Point 43 °F    
Average Humidity 54    
Maximum Humidity 90    
Minimum Humidity 18    
Precipitation  
Precipitation T in 0.09 in 1.43 in (1934)
Month to date precipitation 0.32 1.65  
Year to date precipitation 24.12 28.88  
Snow  
Snow 0.00 in 0.00 in 0.00 in (2007)
Month to date snowfall 0.0 0.0  
Since 1 July snowfall 0.0 0.0  
Since 1 September snowfall 0.0 0.0  
Snow Depth 0.00 in    
Sea Level Pressure  
Sea Level Pressure 29.58 in    
Wind  
Wind Speed 14 mph (NW)    
Max Wind Speed 30 mph    
Max Gust Speed 39 mph    
Visibility 10 miles    
Events Rain    
T = Trace of Precipitation, MM = Missing Value Source: NWS Daily Summary

Daily Weather History Graph

Daily Weather History Graph

Search for Another Location

Airport or City:

Trip Planner

Search our weather history database for the weather conditions in past years. The results will help you decide how hot, cold, wet, or windy it might be!

Date:

Astronomy

Oct. 17, 2012 Rise Set
Actual Time 7:40 AM CDT 6:48 PM CDT
Civil Twilight 7:13 AM CDT 7:15 PM CDT
Nautical Twilight 6:43 AM CDT 7:45 PM CDT
Astronomical Twilight 6:13 AM CDT 8:16 PM CDT
Moon 10:12 AM CDT (10/17) 8:29 PM CDT (10/17)
Length of Visible Light 12h 01m
Length of Day
11h 08m
Waxing Crescent, 7% of the Moon is Illuminated
Oct 17
Waxing Crescent
Oct 21
First Quarter
Oct 29
Full
Nov 6
Last Quarter
Nov 13
New

Hourly Weather History & Observations

Time (CDT) Temp. Windchill Dew Point Humidity Pressure Visibility Wind Dir Wind Speed Gust Speed Precip Events Conditions
12:53 AM 64.0 °F - 55.9 °F 75% 29.47 in 10.0 mi South 11.5 mph - N/A   Scattered Clouds
1:53 AM 64.9 °F - 55.9 °F 73% 29.46 in 10.0 mi South 12.7 mph - N/A   Mostly Cloudy
2:53 AM 62.1 °F - 55.9 °F 80% 29.42 in 10.0 mi SSE 12.7 mph - N/A   Mostly Cloudy
3:53 AM 60.1 °F - 55.9 °F 86% 29.40 in 10.0 mi SSE 10.4 mph - N/A   Mostly Cloudy
4:53 AM 60.1 °F - 57.0 °F 90% 29.38 in 10.0 mi SSE 9.2 mph - N/A   Mostly Cloudy
5:53 AM 60.1 °F - 57.0 °F 90% 29.41 in 10.0 mi South 4.6 mph - N/A   Mostly Cloudy
6:29 AM 60.8 °F - 57.2 °F 88% 29.51 in 9.0 mi NW 10.4 mph 33.4 mph N/A   Squalls
6:53 AM 61.0 °F - 57.0 °F 87% 29.45 in 10.0 mi Variable 3.5 mph 18.4 mph N/A   Mostly Cloudy
7:03 AM 60.8 °F - 57.2 °F 88% 29.48 in 10.0 mi NNE 5.8 mph - N/A   Scattered Clouds
7:53 AM 60.1 °F - 57.0 °F 90% 29.47 in 8.0 mi NE 3.5 mph - N/A   Mostly Cloudy
8:53 AM 61.0 °F - 57.0 °F 87% 29.50 in 8.0 mi North 4.6 mph - N/A   Mostly Cloudy
9:53 AM 63.0 °F - 55.9 °F 78% 29.55 in 10.0 mi NNW 19.6 mph - 0.00 in Rain Light Rain
10:53 AM 62.1 °F - 48.9 °F 62% 29.58 in 10.0 mi NNW 21.9 mph 31.1 mph 0.00 in   Mostly Cloudy
11:53 AM 66.9 °F - 43.0 °F 42% 29.60 in 10.0 mi North 25.3 mph 34.5 mph N/A   Mostly Cloudy
12:53 PM 70.0 °F - 37.9 °F 31% 29.57 in 10.0 mi North 21.9 mph 35.7 mph N/A   Scattered Clouds
1:53 PM 71.1 °F - 34.0 °F 26% 29.61 in 10.0 mi North 20.7 mph 27.6 mph N/A   Scattered Clouds
2:53 PM 73.0 °F - 35.1 °F 25% 29.62 in 10.0 mi NW 24.2 mph 31.1 mph N/A   Scattered Clouds
3:53 PM 72.0 °F - 30.0 °F 21% 29.63 in 10.0 mi WNW 19.6 mph 28.8 mph N/A   Scattered Clouds
4:53 PM 70.0 °F - 24.1 °F 18% 29.66 in 10.0 mi NW 25.3 mph 34.5 mph N/A   Mostly Cloudy
5:53 PM 66.9 °F - 26.1 °F 21% 29.69 in 10.0 mi NW 20.7 mph 27.6 mph N/A   Scattered Clouds
6:53 PM 63.0 °F - 24.1 °F 23% 29.72 in 10.0 mi NW 17.3 mph - N/A   Scattered Clouds
7:53 PM 60.1 °F - 25.0 °F 26% 29.76 in 10.0 mi NW 11.5 mph - N/A   Scattered Clouds
8:53 PM 57.9 °F - 25.0 °F 28% 29.78 in 10.0 mi WNW 10.4 mph - N/A   Partly Cloudy
9:53 PM 55.9 °F - 24.1 °F 29% 29.79 in 10.0 mi WNW 9.2 mph - N/A   Partly Cloudy
10:53 PM 46.0 °F 41.9 °F 27.0 °F 47% 29.81 in 10.0 mi WSW 8.1 mph - N/A   Clear
11:53 PM 48.9 °F - 25.0 °F 39% 29.81 in 10.0 mi WNW 9.2 mph - N/A   Partly Cloudy